Location: Krakow
(50.0830°N, 19.9170°E)
Time: 20:30:26
(UTC+01:00)

Altair - Pass Details

Date: 04 December 2023
Orbit: 1501 x 1682 km, 47.2° (Epoch: 03 March)

Event Time Altitude Azimuth Distance (km) Brightness Sun altitude
Rises 08:32:10 0° 230° (SW) 4,818 10.1 7.7°
Reaches altitude 10° 08:35:24 10° 225° (SW) 3,809 9.7 8.0°
Maximum altitude 08:44:38 53° 153° (SSE) 1,855 8.8 8.9°
Drops below altitude 10° 08:53:33 10° 80° (E) 3,691 9.9 9.8°
Sets 08:56:37 0° 76° (ENE) 4,659 10.3 10.1°
